Date,TemperatureHighF,TemperatureAvgF,TemperatureLowF,DewpointHighF,DewpointAvgF,DewpointLowF,HumidityHigh,HumidityAvg,HumidityLow,PressureMaxIn,PressureMinIn,WindSpeedMaxMPH,WindSpeedAvgMPH,GustSpeedMaxMPH,PrecipitationSumIn
2013-1-1,33,19,10,14,9,6,87,66,39,30.47,30.30,5,0,5,0.00
2013-1-2,32,21,11,13,7,2,69,56,33,30.58,30.40,13,1,13,0.01
2013-1-3,38,23,12,9,3,-1,72,44,20,30.59,30.45,9,1,9,0.01
2013-1-4,48,28,16,15,7,0,67,43,20,30.46,30.21,7,1,7,0.00
2013-1-5,40,27,17,17,12,7,70,56,34,30.49,30.25,12,1,12,0.00
2013-1-6,48,29,14,17,10,2,72,48,16,30.47,30.10,9,0,9,0.00
2013-1-7,53,37,26,16,13,9,59,40,18,30.16,29.89,7,0,7,0.00
2013-1-8,53,40,26,20,16,10,61,40,25,30.28,29.87,16,1,16,0.00
2013-1-9,62,39,23,24,19,14,72,47,18,30.40,30.06,12,1,12,0.00
2013-1-10,47,35,24,22,18,12,72,51,29,30.06,29.54,15,1,15,0.00
2013-1-11,45,28,14,26,17,7,87,66,34,29.92,29.33,14,2,14,0.00
2013-1-12,14,8,3,7,2,-1,86,77,59,30.42,29.92,10,1,10,0.00
2013-1-13,14,7,0,3,0,-4,92,73,58,30.55,30.41,10,1,10,0.00
2013-1-14,14,7,2,5,1,-3,85,77,63,30.59,30.46,5,0,5,0.00
2013-1-15,31,18,-1,15,4,-6,82,56,36,30.56,30.43,7,0,7,0.00
2013-1-16,52,35,23,24,18,12,70,51,31,30.48,30.32,7,1,7,0.04
2013-1-17,52,35,22,24,19,15,73,55,27,30.51,30.34,5,0,6,0.00
2013-1-18,58,40,25,17,11,6,64,35,14,30.34,30.14,18,1,18,0.00
2013-1-19,61,42,26,14,9,3,48,29,12,30.30,30.15,7,0,9,0.00
2013-1-20,49,33,22,17,14,11,77,48,22,30.37,30.16,15,1,15,0.00
2013-1-21,57,36,17,19,12,3,83,45,15,30.37,30.17,15,1,15,0.00
2013-1-22,63,44,27,9,2,-3,38,20,8,30.18,30.06,18,2,18,0.00
2013-1-23,57,41,31,19,9,1,39,27,15,30.22,30.13,6,0,6,0.00
2013-1-24,66,47,28,29,20,10,55,35,16,30.18,29.95,23,3,23,0.00
2013-1-25,59,43,33,30,26,22,68,52,32,30.13,29.99,6,0,6,0.00
2013-1-26,54,40,28,36,28,22,90,64,38,30.08,29.77,6,0,6,0.01
2013-1-27,58,42,30,38,32,24,93,70,39,29.80,29.70,7,0,7,0.01
2013-1-28,59,40,27,30,26,21,92,61,25,29.77,29.46,20,1,20,0.00
2013-1-29,32,26,20,24,16,8,90,68,39,30.15,29.75,8,1,8,0.13
2013-1-30,40,28,13,16,12,6,84,53,35,30.15,30.03,23,2,23,0.04
2013-1-31,47,38,26,23,18,15,70,47,29,30.21,30.04,20,3,20,0.04
2013-2-1,50,36,23,22,19,14,74,53,28,30.30,30.12,24,3,24,0.00
2013-2-2,59,38,23,21,16,11,75,47,16,30.40,30.28,12,2,12,0.00
2013-2-3,52,37,24,22,16,7,70,46,17,30.33,29.95,13,0,13,0.00
2013-2-4,55,39,24,16,12,8,60,37,17,30.08,29.92,24,2,24,0.00
2013-2-5,62,43,27,21,17,14,61,39,20,30.12,29.86,9,1,9,0.00
2013-2-6,56,41,29,33,24,17,90,54,27,30.10,29.78,10,1,10,0.00
2013-2-7,49,36,26,32,24,14,92,66,27,30.22,30.09,10,1,10,0.05
2013-2-8,52,36,27,22,19,15,68,51,29,30.10,29.76,8,1,8,0.00
2013-2-9,37,30,22,28,21,14,85,71,53,29.80,29.63,10,1,10,0.00
2013-2-10,37,28,22,20,15,9,86,61,33,30.24,29.72,12,2,12,0.00
2013-2-11,30,23,15,15,13,10,84,67,50,30.27,30.16,6,1,6,0.00
2013-2-12,41,28,15,13,6,-3,83,46,16,30.30,30.20,7,1,7,0.00
2013-2-13,47,34,22,16,12,6,55,40,25,30.22,30.06,21,3,21,0.00
2013-2-14,36,28,23,23,18,13,87,67,48,30.45,30.11,14,0,14,0.00
2013-2-15,40,26,15,19,15,10,84,63,34,30.54,30.42,14,1,14,0.04
2013-2-16,57,40,22,18,15,12,73,40,21,30.42,30.02,20,2,20,0.00
2013-2-17,63,43,27,20,10,-1,65,31,8,30.02,29.52,21,2,21,0.00
2013-2-18,41,32,21,20,12,2,77,46,20,30.22,29.78,21,2,21,0.00
2013-2-19,42,29,17,15,11,5,64,47,32,30.22,29.94,6,0,6,0.00
2013-2-20,36,26,20,28,18,13,91,73,50,29.95,29.75,6,0,6,0.00
2013-2-21,28,20,15,20,15,11,92,82,66,30.15,29.89,10,0,10,0.10
2013-2-22,34,24,12,19,15,9,92,70,47,30.20,30.08,12,1,12,0.08
2013-2-23,46,31,17,28,17,8,82,58,32,30.08,29.73,12,2,12,0.06
2013-2-24,34,34,34,24,24,24,66,66,66,29.76,29.76,2,2,2,0.00
2013-2-25,39,30,12,24,18,9,91,62,30,30.31,29.76,10,1,10,0.08
2013-2-26,34,25,17,25,19,10,86,77,64,30.35,30.01,10,0,11,0.06
2013-2-27,36,24,17,18,13,8,80,65,34,30.45,30.34,6,0,7,0.12
2013-2-28,44,30,14,17,11,5,71,47,24,30.49,30.35,15,1,16,0.09
2013-3-1,47,36,25,24,19,15,70,51,33,30.43,30.34,6,0,8,0.04
2013-3-2,62,44,29,28,25,20,72,49,25,30.40,30.05,9,1,9,0.00
2013-3-3,64,50,38,28,25,20,64,39,22,30.05,29.58,6,0,10,0.00
2013-3-4,44,30,17,27,21,11,90,71,47,30.38,29.61,10,1,11,0.00
2013-3-5,42,26,11,23,16,6,83,65,44,30.52,30.34,4,0,5,0.11
2013-3-6,59,37,19,33,23,16,90,63,18,30.34,29.92,6,0,9,0.01
2013-3-7,66,47,30,31,26,21,77,49,18,30.01,29.82,10,1,13,0.00
2013-3-8,47,38,30,33,30,25,85,72,53,29.95,29.72,5,0,5,0.00
2013-3-9,34,31,26,31,28,18,94,87,68,30.23,29.68,12,0,12,0.00
2013-3-10,41,28,17,24,18,13,89,68,43,30.34,30.20,9,0,9,0.22
2013-3-11,52,38,29,31,24,19,91,60,30,30.23,29.97,19,2,19,0.09
2013-3-12,41,31,25,30,26,21,93,82,64,30.42,30.21,5,0,5,0.06
2013-3-13,67,37,29,40,27,22,89,71,21,30.40,30.22,14,0,18,0.31
2013-3-14,72,54,38,32,27,18,63,39,13,30.27,30.05,12,0,12,0.00
2013-3-15,76,61,46,28,26,21,47,28,14,30.05,29.70,17,2,19,0.00
2013-3-16,54,48,41,35,32,24,74,54,32,29.83,29.70,11,0,11,0.00
2013-3-17,60,46,34,33,25,14,79,49,19,29.81,29.49,24,2,24,0.00
2013-3-18,51,41,32,19,13,8,45,32,21,29.97,29.81,20,2,20,0.00
2013-3-19,54,42,29,20,12,3,59,31,13,30.39,29.96,19,1,19,0.00
2013-3-20,53,38,23,26,21,15,78,53,33,30.39,29.80,7,0,7,0.00
2013-3-21,60,44,33,36,24,11,65,48,25,29.84,29.48,18,1,19,0.00
2013-3-22,48,35,27,29,22,13,92,60,35,29.99,29.63,17,1,17,0.00
2013-3-23,27,20,14,25,17,10,92,88,83,30.45,29.99,12,0,12,0.00
2013-3-24,26,18,5,18,11,1,88,77,61,30.52,30.39,6,0,7,0.19
2013-3-25,35,24,13,15,11,6,88,61,32,30.55,30.43,7,0,8,0.13
2013-3-26,55,25,18,33,16,12,81,70,27,30.43,30.03,9,0,12,0.09
2013-3-27,56,41,27,36,30,24,87,66,40,30.16,30.06,11,0,11,0.04
2013-3-28,65,47,31,37,32,29,93,62,28,30.14,30.03,12,0,12,0.01
2013-3-29,67,52,37,34,31,28,76,48,25,30.10,29.97,17,1,17,0.00
2013-3-30,68,51,37,39,31,23,78,51,19,30.15,29.90,22,1,22,0.00
2013-3-31,71,52,34,36,28,19,88,48,16,30.15,29.87,11,1,11,0.00
2013-4-1,55,42,33,36,30,26,81,63,43,30.09,29.91,17,1,17,0.00
2013-4-2,41,38,37,35,34,32,93,84,71,30.18,30.06,5,0,5,0.08
2013-4-3,62,46,37,39,33,26,94,66,28,30.22,30.07,8,0,8,0.14
2013-4-4,69,54,35,32,29,27,75,43,22,30.17,29.92,9,1,10,0.00
2013-4-5,74,59,47,35,29,25,51,33,18,29.92,29.52,21,1,25,0.00
2013-4-6,65,55,43,35,27,22,50,34,23,29.81,29.70,16,1,16,0.00
2013-4-7,64,54,41,35,30,25,78,43,23,29.75,29.57,18,1,18,0.00
2013-4-8,68,47,26,37,30,23,88,54,21,29.79,29.26,17,1,17,0.00
2013-4-9,26,17,11,23,13,7,88,82,72,30.49,29.78,13,1,14,0.00
2013-4-10,27,19,8,17,10,4,85,70,54,30.49,30.15,11,1,11,0.08
2013-4-11,23,22,21,18,16,15,83,78,74,30.15,30.03,0,0,0,0.00
2013-4-12,60,44,31,36,30,23,92,63,25,30.00,29.85,8,1,16,0.02
2013-4-13,69,50,30,36,28,18,91,51,17,29.96,29.35,11,1,11,0.00
2013-4-14,50,43,33,39,23,12,93,51,24,29.77,29.42,22,2,22,0.22
2013-4-15,39,31,23,27,23,14,91,74,35,30.16,29.72,11,0,11,0.00
2013-4-16,36,29,23,31,26,21,93,87,72,30.17,29.98,15,1,15,0.13
2013-4-17,31,27,20,28,25,17,94,91,85,30.34,30.04,12,0,12,0.06
2013-4-18,37,26,15,20,15,12,88,63,41,30.38,30.31,8,1,8,0.08
2013-4-19,55,41,25,27,19,13,67,44,26,30.34,30.00,13,1,13,0.06
2013-4-20,58,47,33,36,30,24,79,53,32,30.00,29.86,10,0,10,0.02
2013-4-21,64,50,36,34,29,22,85,49,23,30.06,29.90,13,1,13,0.02
2013-4-22,53,35,23,38,28,20,92,78,53,30.40,29.83,19,0,19,0.01
2013-4-23,35,26,21,22,19,17,91,75,53,30.45,30.33,6,0,6,0.03
2013-4-24,57,32,25,24,19,15,77,61,20,30.38,30.22,9,0,9,0.05
2013-4-25,65,49,32,31,24,14,66,40,18,30.24,29.86,13,0,13,0.01
2013-4-26,68,54,36,30,26,21,71,37,19,30.15,29.96,11,1,11,0.00
2013-4-27,76,59,40,29,26,21,61,32,14,30.15,29.89,10,0,10,0.01
2013-4-28,81,64,44,35,29,24,47,29,15,29.91,29.64,18,1,18,0.00
2013-4-29,81,67,50,37,32,27,54,30,15,29.75,29.38,16,1,16,0.00
2013-4-30,61,52,40,41,34,27,87,53,27,29.95,29.41,9,1,12,0.00
2013-5-1,40,33,25,37,30,23,99,91,88,30.78,29.94,10,0,10,0.20
2013-5-2,46,34,22,26,22,18,92,64,34,30.89,30.55,7,0,7,0.17
2013-5-3,61,47,30,28,25,21,77,46,25,30.55,30.10,11,1,11,0.03
2013-5-4,59,43,35,36,28,23,75,58,32,30.19,30.06,12,0,12,0.01
2013-5-5,58,48,36,35,28,23,70,47,32,30.20,30.04,9,0,9,0.00
2013-5-6,66,54,40,39,34,26,63,48,33,30.07,29.83,7,0,7,0.00
2013-5-7,72,57,46,47,39,35,89,56,28,29.89,29.74,10,0,10,0.00
2013-5-8,61,48,43,49,43,40,94,84,50,30.06,29.83,20,0,20,0.51
2013-5-9,56,47,43,48,44,38,95,87,58,30.18,30.04,14,0,14,0.28
2013-5-10,68,53,38,44,38,35,89,60,32,30.23,30.14,6,1,10,0.00
2013-5-11,69,57,44,43,39,34,78,53,29,30.32,30.10,14,1,14,0.00
2013-5-12,79,65,48,41,38,35,72,41,22,30.13,29.93,13,0,13,0.00
2013-5-13,86,71,53,44,40,37,56,35,21,29.96,29.78,6,0,11,0.00
2013-5-14,86,71,59,46,41,37,47,36,19,29.78,29.67,11,1,12,0.00
2013-5-15,83,64,58,54,43,40,87,49,23,29.77,29.61,10,0,10,0.59
2013-5-16,84,67,51,51,44,38,81,48,20,29.73,29.58,11,0,11,0.00
2013-5-17,89,72,51,47,36,26,68,33,11,29.67,29.45,7,1,11,0.00
2013-5-18,77,64,54,43,35,28,57,34,21,29.66,29.49,9,0,11,0.00
2013-5-19,71,60,51,41,36,28,65,43,21,29.69,29.56,9,1,11,0.00
2013-5-20,65,53,48,49,42,36,91,68,39,29.93,29.68,10,0,10,0.24
2013-5-21,71,57,42,42,37,32,92,52,27,29.98,29.76,12,1,12,0.00
2013-5-22,78,60,44,55,40,34,85,52,24,29.91,29.69,6,0,7,0.11
2013-5-23,71,59,47,50,46,44,89,64,42,29.95,29.77,10,1,10,0.00
2013-5-24,87,69,48,56,44,30,90,48,13,29.83,29.63,11,1,11,0.00
2013-5-25,89,72,54,56,41,22,85,41,9,29.74,29.55,6,0,6,0.00
2013-5-26,84,70,56,47,38,26,62,35,13,29.67,29.57,14,1,14,0.00
2013-5-27,83,70,54,46,36,27,55,32,13,29.61,29.47,6,0,9,0.00
2013-5-28,84,66,49,48,41,34,69,43,19,29.60,29.32,7,0,9,0.00
2013-5-29,67,57,50,51,44,33,93,64,35,29.58,29.36,6,0,10,0.29
2013-5-30,64,56,48,37,33,28,65,43,26,29.72,29.55,6,0,13,0.00
2013-5-31,73,62,48,32,25,18,51,26,13,29.86,29.69,17,2,17,0.00
2013-6-1,70,57,44,41,36,24,76,46,28,30.08,29.86,11,1,11,0.00
2013-6-2,86,65,44,44,37,33,79,40,17,30.08,29.62,6,0,7,0.00
2013-6-3,92,75,54,42,36,30,50,28,12,29.65,29.43,11,1,12,0.00
2013-6-4,75,63,51,55,46,30,91,57,24,30.03,29.65,6,0,9,0.29
2013-6-5,59,52,46,48,46,43,92,80,65,30.09,30.02,6,0,6,0.01
2013-6-6,80,63,44,51,43,39,95,56,24,30.08,29.88,6,0,6,0.01
2013-6-7,83,67,51,51,44,41,81,46,23,29.95,29.59,9,0,14,0.03
2013-6-8,76,67,58,51,44,40,58,45,33,29.84,29.54,14,1,14,0.00
2013-6-9,93,61,48,48,43,37,85,56,17,29.87,29.66,9,0,10,0.00
2013-6-10,99,81,61,49,42,36,45,27,14,29.69,29.50,13,0,13,0.00
2013-6-11,100,82,61,47,37,26,51,24,8,29.63,29.40,21,1,21,0.00
2013-6-12,92,77,64,50,36,30,41,23,15,29.80,29.63,16,0,16,0.00
2013-6-13,85,72,58,60,53,42,85,55,29,29.82,29.60,10,0,10,0.00
2013-6-14,90,78,65,52,45,38,53,33,19,29.70,29.53,17,1,17,0.00
2013-6-15,82,70,57,53,49,46,72,49,33,29.82,29.65,10,0,10,0.00
2013-6-16,84,70,59,51,46,36,70,45,22,29.92,29.79,23,0,23,0.00
2013-6-17,84,69,53,52,45,39,71,45,23,29.95,29.81,10,0,12,0.00
2013-6-18,85,70,55,55,50,42,88,53,24,29.90,29.63,14,0,14,0.00
2013-6-19,96,76,55,54,47,31,81,42,11,29.74,29.34,14,0,18,0.00
2013-6-20,92,74,55,54,40,30,72,33,15,29.63,29.44,11,0,13,0.00
2013-6-21,95,77,59,55,43,29,64,36,11,29.65,29.45,11,0,12,0.00
2013-6-22,87,72,56,53,49,45,76,46,29,29.66,29.47,11,0,13,0.00
2013-6-23,87,68,54,57,50,39,87,56,21,29.79,29.55,13,0,13,0.14
2013-6-24,91,73,58,55,46,35,70,42,15,29.70,29.49,24,0,26,0.00
2013-6-25,92,76,59,46,41,35,47,30,17,29.73,29.53,11,0,12,0.00
2013-6-26,98,80,58,49,44,40,58,31,16,29.81,29.67,10,0,10,0.00
2013-6-27,96,81,62,51,46,43,55,32,17,29.90,29.74,9,0,10,0.00
2013-6-28,94,80,64,62,54,46,73,42,27,29.96,29.75,14,0,15,0.04
2013-6-29,85,74,60,60,55,49,84,54,32,29.92,29.82,10,0,12,0.00
2013-6-30,78,68,60,61,56,51,92,67,48,29.97,29.87,4,0,7,0.14
2013-7-1,79,65,55,67,55,49,95,75,37,30.08,29.96,7,0,7,0.24
2013-7-2,60,58,56,58,56,55,94,93,90,30.05,30.01,0,0,0,0.01
2013-7-3,77,71,66,50,50,49,56,48,39,29.70,29.68,0,0,1,0.02
2013-7-4,92,75,59,54,49,45,69,43,22,29.74,29.61,13,0,14,0.00
2013-7-5,91,74,62,56,53,48,69,48,27,29.63,29.52,17,0,17,0.00
2013-7-6,91,76,67,63,53,48,64,46,26,29.70,29.57,12,0,12,0.02
2013-7-7,87,74,63,62,55,51,72,52,34,29.79,29.68,11,0,11,0.00
2013-7-8,97,79,63,56,52,46,67,42,19,29.80,29.70,12,0,12,0.00
2013-7-9,95,79,63,55,49,42,60,38,17,29.87,29.78,7,0,14,0.00
2013-7-10,90,76,61,62,55,49,80,50,31,29.90,29.72,5,0,13,0.00
2013-7-11,102,74,62,63,56,46,87,56,18,29.81,29.51,16,0,16,0.06
2013-7-12,93,76,66,67,58,52,91,57,27,29.77,29.60,12,0,12,0.16
2013-7-13,92,71,63,66,61,54,96,74,29,29.92,29.73,7,0,11,2.17
2013-7-14,82,69,58,63,60,57,98,77,45,30.00,29.85,12,0,12,0.06
2013-7-15,79,69,64,65,60,47,95,76,48,29.97,29.85,12,0,12,0.12
2013-7-16,77,64,56,57,51,48,81,64,45,29.97,29.90,14,0,14,0.00
2013-7-17,91,68,58,59,54,49,87,64,28,29.97,29.80,11,0,14,0.00
2013-7-18,93,76,61,58,55,51,77,49,27,29.87,29.73,10,0,14,0.00
2013-7-19,82,73,65,59,57,54,74,57,40,29.88,29.81,9,1,9,0.00
2013-7-20,92,73,59,60,56,48,89,59,25,29.81,29.62,14,0,15,0.00
2013-7-21,91,75,59,63,56,48,86,54,27,29.72,29.61,12,0,12,0.00
2013-7-22,96,79,60,62,52,46,73,41,20,29.70,29.61,12,0,12,0.00
2013-7-23,90,77,62,58,51,44,64,41,23,29.83,29.63,12,0,12,0.00
2013-7-24,83,73,65,63,57,48,78,57,35,29.87,29.77,15,0,15,0.00
2013-7-25,81,66,59,62,56,51,93,72,40,30.06,29.80,15,0,15,0.07
2013-7-26,88,72,57,56,52,42,82,54,24,30.09,29.88,10,0,10,0.00
2013-7-27,79,67,55,62,55,51,93,67,45,29.94,29.79,9,0,9,0.22
2013-7-28,73,64,60,61,59,57,95,86,64,29.87,29.73,7,0,7,0.02
2013-7-29,72,64,57,64,58,54,96,83,55,30.01,29.74,6,0,9,0.03
2013-7-30,90,72,56,56,53,49,91,57,27,30.05,29.92,12,0,12,0.00
2013-7-31,93,75,59,58,53,45,83,51,21,30.07,29.84,7,0,11,0.00
2013-8-1,73,65,63,58,57,56,81,75,61,29.94,29.80,6,0,6,0.00
2013-8-2,94,76,60,58,53,47,81,48,23,29.77,29.67,4,0,14,0.00
2013-8-3,91,72,59,62,56,51,93,61,27,30.02,29.72,20,0,20,0.49
2013-8-4,85,66,56,60,56,53,95,73,38,29.96,29.82,7,0,7,0.01
2013-8-5,87,74,59,57,53,49,79,51,29,29.84,29.73,9,0,9,0.00
2013-8-6,88,73,60,57,51,42,77,48,22,29.79,29.69,16,0,16,0.00
2013-8-7,74,68,60,59,54,49,84,63,48,29.83,29.75,11,0,11,0.01
2013-8-8,78,64,57,59,56,50,93,77,47,30.21,29.78,14,0,14,0.03
2013-8-9,81,64,52,58,51,47,88,65,31,30.26,29.96,8,1,8,0.05
2013-8-10,88,68,51,58,50,45,91,59,24,30.07,29.86,18,1,18,0.32
2013-8-11,82,73,57,56,52,48,85,50,31,30.00,29.81,12,1,12,0.00
2013-8-12,81,67,55,58,54,49,93,65,40,29.99,29.81,13,1,13,0.17
2013-8-13,81,66,54,60,53,49,93,67,35,30.27,29.53,11,0,11,0.04
2013-8-14,84,68,54,56,51,44,93,60,28,30.27,30.14,12,0,12,0.00
2013-8-15,87,70,57,55,49,40,73,50,23,30.23,30.15,29,0,29,0.00
2013-8-16,92,74,55,55,48,40,79,44,18,30.23,30.15,8,0,8,0.00
2013-8-17,95,77,59,55,48,36,67,41,13,30.21,30.06,9,0,9,0.00
2013-8-18,94,77,59,56,51,44,82,45,19,30.18,30.08,12,0,12,0.00
2013-8-19,96,79,59,54,49,43,69,39,17,30.17,30.06,8,0,9,0.00
2013-8-20,99,81,64,53,47,35,53,33,13,30.10,30.01,7,0,7,0.00
2013-8-21,92,75,65,62,52,46,82,46,25,30.17,30.07,11,0,11,0.10
2013-8-22,83,68,61,64,58,55,86,71,43,30.28,29.82,13,0,13,0.02
2013-8-23,90,73,62,58,55,51,79,57,30,30.26,30.04,20,0,20,0.01
2013-8-24,88,72,57,62,54,50,81,57,30,30.14,30.09,11,0,11,0.01
2013-8-25,91,82,55,59,56,50,90,43,27,29.91,29.74,12,1,12,0.00
2013-8-26,91,80,61,60,58,53,88,49,29,29.82,29.72,8,1,8,0.00
2013-8-27,93,78,63,60,57,53,78,52,27,29.81,29.66,9,1,9,0.00
2013-8-28,92,82,66,59,56,49,68,43,23,29.79,29.67,9,1,6,0.00
2013-8-29,94,78,63,56,52,49,67,45,22,29.84,29.76,12,1,12,0.00
2013-8-30,90,73,66,63,56,52,84,56,32,29.83,29.75,12,0,12,0.07
2013-8-31,90,74,61,60,55,50,80,53,26,29.81,29.72,14,0,14,0.00
2013-9-1,81,70,63,61,56,52,77,62,49,29.90,29.79,5,0,5,0.00
2013-9-2,91,74,57,59,55,50,87,55,26,29.88,29.70,8,0,8,0.00
2013-9-3,93,78,65,58,55,51,72,47,26,29.79,29.67,13,1,13,0.00
2013-9-4,92,77,68,60,56,52,67,49,27,29.85,29.76,15,0,15,0.00
2013-9-5,95,76,63,60,55,47,80,53,24,29.89,29.76,16,0,16,0.07
2013-9-6,98,77,62,58,52,45,64,44,18,29.84,29.68,10,0,10,0.00
2013-9-7,96,76,61,58,50,42,70,44,18,29.80,29.65,9,0,9,0.00
2013-9-8,92,74,58,55,50,45,68,46,23,29.71,29.51,10,0,10,0.00
2013-9-9,84,68,58,59,55,51,85,66,36,29.80,29.53,13,1,13,0.00
2013-9-10,69,62,60,60,58,55,95,86,73,30.00,29.77,6,0,6,0.51
2013-9-11,68,62,60,63,60,59,96,94,78,30.00,29.94,9,0,9,0.95
2013-9-12,63,61,58,62,60,57,98,96,92,30.07,29.97,17,2,17,5.79
2013-9-13,78,64,58,63,60,57,98,86,55,29.99,29.66,9,0,9,0.40
2013-9-14,80,64,57,62,58,53,97,84,48,29.80,29.61,12,1,12,0.32
2013-9-15,61,57,55,58,56,54,97,95,89,30.13,29.80,8,0,8,0.35
2013-9-16,77,62,52,59,55,51,98,82,51,30.11,29.85,7,0,7,0.01
2013-9-17,86,68,52,54,49,39,91,56,21,29.87,29.57,8,1,8,0.00
2013-9-18,86,70,57,54,49,42,77,50,25,29.95,29.54,13,1,13,0.00
2013-9-19,67,59,49,48,44,36,84,57,43,30.20,29.91,9,1,9,0.04
2013-9-20,75,59,48,49,46,42,94,65,32,30.22,30.01,7,0,7,0.05
2013-9-21,84,66,49,50,46,40,91,55,23,30.08,29.85,10,1,10,0.00
2013-9-22,78,64,52,55,48,44,90,59,37,29.86,29.37,20,1,20,0.06
2013-9-23,68,57,48,54,42,33,97,64,30,29.91,29.40,17,3,17,1.19
2013-9-24,80,59,42,42,37,33,75,49,21,30.02,29.67,8,0,8,0.00
2013-9-25,84,65,43,49,39,34,89,46,18,29.67,29.24,18,2,18,0.00
2013-9-26,71,58,44,49,44,35,87,62,39,29.56,29.31,9,1,9,0.00
2013-9-27,52,47,40,50,45,39,95,93,87,29.97,29.56,8,1,8,0.22
2013-9-28,69,50,34,41,35,26,96,61,25,30.12,29.96,10,1,10,0.00
2013-9-29,78,57,41,46,37,30,78,52,19,30.05,29.76,8,0,8,0.00
2013-9-30,83,64,52,49,43,35,72,49,24,29.77,29.55,8,0,8,0.00
2013-10-1,79,60,46,47,43,39,78,56,27,29.87,29.67,12,1,12,0.00
2013-10-2,76,60,44,46,42,38,86,56,26,29.81,29.67,10,1,10,0.00
2013-10-3,66,52,41,48,43,38,93,74,46,29.73,29.58,9,1,9,0.04
2013-10-4,49,38,29,47,33,24,95,83,54,30.25,29.66,13,2,13,0.39
2013-10-5,62,42,27,29,24,17,91,57,19,30.34,30.19,10,1,10,0.00
2013-10-6,68,49,33,39,31,24,76,52,26,30.28,30.15,8,1,8,0.00
2013-10-7,80,57,37,39,33,26,82,47,14,30.15,29.77,6,0,6,0.00
2013-10-8,79,61,48,42,36,27,69,44,16,29.77,29.50,13,1,13,0.00
2013-10-9,66,54,43,44,40,36,85,61,42,29.85,29.62,8,1,8,0.00
2013-10-10,60,49,42,50,43,40,94,81,65,29.84,29.43,16,0,16,0.03
2013-10-11,61,51,41,42,35,28,90,58,34,29.96,29.43,10,1,10,0.01
2013-10-12,59,47,39,43,40,36,94,78,50,30.12,29.97,9,0,9,0.00
2013-10-13,63,48,36,46,40,34,94,76,50,30.12,29.82,8,0,8,0.01
2013-10-14,54,45,38,46,39,32,96,81,55,30.17,29.75,15,2,15,0.14
2013-10-15,42,38,34,32,27,24,78,65,56,30.33,30.16,9,0,9,0.00
2013-10-16,54,40,27,32,28,25,94,67,35,30.27,30.05,7,0,7,0.00
2013-10-17,49,41,33,33,30,27,83,66,50,30.17,30.03,9,1,9,0.00
2013-10-18,44,36,31,34,30,27,94,78,53,30.23,30.05,10,1,10,0.19
2013-10-19,65,46,30,30,26,23,87,51,23,30.20,29.89,12,1,12,0.00
2013-10-20,47,40,33,36,33,27,94,75,56,30.16,29.85,12,1,12,0.07
2013-10-21,58,42,29,36,30,26,96,69,32,30.27,30.12,12,1,12,0.00
2013-10-22,65,48,33,36,32,28,82,57,30,30.23,30.08,7,0,7,0.00
2013-10-23,65,50,39,37,33,29,79,56,32,30.16,30.06,12,1,12,0.00
2013-10-24,54,42,31,39,35,29,95,79,57,30.27,30.16,7,0,7,0.00
2013-10-25,67,53,33,37,34,31,95,57,29,30.25,30.10,7,1,7,0.00
2013-10-26,67,56,34,39,35,31,90,49,29,30.32,30.10,8,1,8,0.00
2013-10-27,71,51,34,34,30,26,81,50,20,30.10,29.76,9,1,9,0.00
2013-10-28,43,36,33,34,31,28,94,83,61,30.10,29.78,9,1,9,0.00
2013-10-29,41,36,33,34,32,31,95,87,75,30.10,30.00,5,0,5,0.02
2013-10-30,51,40,34,39,34,29,89,78,51,30.03,29.82,10,0,10,0.00
2013-10-31,54,42,28,30,25,21,90,56,28,29.93,29.84,20,3,20,0.00
2013-11-1,47,40,34,32,30,24,77,69,41,30.11,29.91,7,0,7,0.00
2013-11-2,39,39,39,32,32,32,74,74,74,30.11,30.11,0,0,0,0.00
2013-11-3,62,42,36,32,30,21,80,64,21,30.11,29.47,12,1,12,0.00
2013-11-4,46,36,29,30,23,14,88,60,35,29.99,29.76,15,2,15,0.00
2013-11-5,44,34,26,25,17,6,75,51,22,30.26,29.96,10,1,10,0.00
2013-11-6,53,38,23,20,16,8,57,42,26,30.43,30.23,20,3,20,0.00
2013-11-7,61,42,29,28,22,16,65,47,25,30.45,30.01,8,0,8,0.00
2013-11-8,65,48,33,28,24,19,68,43,20,30.01,29.77,10,1,10,0.00
2013-11-9,67,46,33,34,28,23,74,53,23,30.23,29.96,7,0,7,0.00
2013-11-10,68,47,30,30,26,23,86,52,19,30.24,30.11,5,0,5,0.00
2013-11-11,67,41,30,34,26,21,89,61,19,30.69,30.18,14,1,14,0.00
2013-11-12,61,43,31,35,29,26,89,60,33,30.70,30.39,9,1,9,0.00
2013-11-13,69,49,33,26,20,14,73,37,12,30.39,29.95,7,0,7,0.00
2013-11-14,59,49,40,35,30,20,66,48,33,30.00,29.68,9,1,9,0.00
2013-11-15,65,48,30,29,23,17,79,43,18,29.68,29.41,15,2,15,0.00
2013-11-16,61,44,31,32,24,17,77,50,20,29.52,29.23,15,1,15,0.00
2013-11-17,58,43,34,27,21,18,66,42,22,30.07,29.52,16,2,16,0.00
2013-11-18,67,44,26,21,18,14,71,41,14,30.17,30.01,7,1,7,0.00
2013-11-19,62,46,32,29,22,16,57,39,21,30.01,29.68,12,1,12,0.00
2013-11-20,58,46,29,28,26,23,83,45,28,29.99,29.68,13,1,13,0.00
2013-11-21,29,18,14,25,13,8,88,81,71,30.86,29.99,10,2,10,0.00
2013-11-22,35,27,17,21,17,10,79,67,51,30.86,30.70,4,0,4,0.13
2013-11-23,36,29,25,22,17,7,79,62,45,30.79,30.44,7,0,7,0.04
2013-11-24,35,29,22,28,22,19,95,77,63,30.44,30.11,4,0,4,0.01
2013-11-25,40,35,28,29,24,18,87,66,46,30.40,30.17,10,1,10,0.02
2013-11-26,49,36,26,26,22,20,89,62,33,30.53,30.32,7,1,7,0.00
2013-11-27,60,43,28,24,21,18,70,47,24,30.32,30.08,8,1,8,0.00
2013-11-28,46,35,27,28,24,21,83,66,46,30.24,30.17,8,0,8,0.00
2013-11-29,63,44,27,25,23,20,83,49,21,30.22,30.12,8,0,8,0.00
2013-11-30,60,47,30,20,18,16,59,33,19,30.19,30.09,7,0,7,0.00
2013-12-1,56,44,28,27,20,15,60,41,25,30.17,29.85,20,2,20,0.00
2013-12-2,60,52,39,26,24,21,53,33,25,29.86,29.45,20,4,20,0.00
2013-12-3,58,36,13,30,19,7,84,54,28,29.81,29.33,12,2,12,0.00
2013-12-4,13,8,0,8,2,-6,92,79,76,30.44,29.80,9,1,9,0.00
2013-12-5,8,2,-5,1,-4,-9,92,78,68,30.58,30.41,7,0,7,0.00
2013-12-6,9,2,-3,0,-3,-7,84,78,65,30.68,30.55,4,0,4,0.00
2013-12-7,10,2,-4,2,-3,-8,88,80,69,30.66,30.22,7,0,7,0.00
2013-12-8,20,10,2,11,4,-1,85,77,63,30.37,30.12,7,0,7,0.01
2013-12-9,23,12,5,4,2,-2,81,64,35,30.45,30.36,9,0,8,0.00
2013-12-10,47,29,10,19,11,-2,63,48,29,30.44,30.12,14,1,14,0.14
2013-12-11,34,23,14,19,14,9,82,69,47,30.52,30.39,8,0,8,0.00
2013-12-12,56,32,15,28,17,9,84,58,21,30.52,30.04,5,0,5,0.00
2013-12-13,50,32,19,20,16,11,75,54,26,30.27,29.93,13,1,13,0.00
2013-12-14,46,32,22,20,17,14,81,55,30,30.39,30.25,9,0,9,0.00
2013-12-15,58,41,24,23,18,15,71,44,23,30.30,30.14,14,1,14,0.00
2013-12-16,63,50,34,23,18,13,50,30,16,30.16,30.02,17,2,17,0.00
2013-12-17,65,49,30,22,19,16,56,32,18,30.31,30.05,8,1,8,0.00
2013-12-18,67,52,44,21,18,15,35,26,16,30.05,29.67,12,0,12,0.00
2013-12-19,43,35,22,24,22,17,81,61,46,29.90,29.50,12,2,12,0.00
2013-12-20,24,22,17,20,18,14,90,86,81,29.93,29.85,10,0,4,0.00
2013-12-21,31,22,14,23,18,11,93,85,70,30.11,29.78,9,0,9,0.00
2013-12-22,41,29,18,23,17,12,92,66,32,30.22,30.11,21,2,21,0.02
2013-12-23,49,35,16,24,21,13,90,60,34,30.44,30.23,13,1,13,0.03
2013-12-24,55,39,24,30,21,13,68,50,30,30.32,30.01,20,2,20,0.00
2013-12-25,47,30,17,13,10,8,73,48,22,30.53,30.30,9,1,9,0.01
2013-12-26,52,38,26,17,14,8,52,38,21,30.40,30.27,12,1,12,0.00
2013-12-27,62,41,30,24,19,15,57,43,22,30.30,30.03,6,0,6,0.00
2013-12-28,59,34,21,26,20,17,89,58,27,30.26,29.81,12,1,12,0.00
2013-12-29,36,25,14,19,15,10,87,67,38,30.32,30.06,12,1,12,0.10
2013-12-30,49,39,29,17,16,14,59,40,26,30.29,30.10,18,5,18,0.00
2013-12-31,58,42,29,24,20,15,61,44,26,30.11,29.89,13,1,13,0.00
2014-1-1,38,31,22,30,25,18,90,77,56,30.36,29.85,13,1,13,0.05
2014-1-2,48,30,17,27,19,13,86,67,31,30.43,30.11,6,0,6,0.02